Regional Weather Roundup
Issued by NWS

Home | Current Version | Previous Version | Text Only | Print | Product List | Glossary Off
Versions: 1 2 3 4 5 6 7 8 9 10 11 12 13 14 15 16 17 18 19 20 21 22 23 24 25 26 27 28 29 30 31 32 33 34 35 36 37 38 39 40 41 42 43 44 45 46 47 48 49 50

000
ASUS43 KLOT 261308
RWRIL

ILLINOIS REGIONAL WEATHER ROUNDUP
NATIONAL WEATHER SERVICE CHICAGO/ROMEOVILLE IL
800 AM CDT WED JUL 26 2017

NOTE: "FAIR" INDICATES FEW OR NO CLOUDS BELOW 12,000 FEET WITH NO
SIGNIFICANT WEATHER AND/OR OBSTRUCTIONS TO VISIBILITY.

* THESE STATIONS ARE NOT UNDER NWS QUALITY CONTROL. THEY ALSO MAY NOT
  REPORT WEATHER SUCH AS PRECIPITATION OR FOG.

ILZ001-002-007-009-015-016-024-261400-
NORTHWEST ILLINOIS

CITY           SKY/WX    TMP DP  RH WIND       PRES   REMARKS
MOLINE         CLOUDY    73  67  81 S5        30.04S
STERLING*      MOSUNNY   69  66  90 SE3       30.07S
SAVANNA*       PTSUNNY   69  66  91 SE6       30.06S
$$

ILZ003-004-008-010-011-017-018-261400-
NORTH CENTRAL ILLINOIS

CITY           SKY/WX    TMP DP  RH WIND       PRES   REMARKS
ROCKFORD       CLOUDY    70  63  78 S5        30.09S
FREEPORT*      PTSUNNY   67  64  88 S5        30.09F
ROCHELLE*      CLOUDY    67  64  89 S3        30.09S
DE KALB*       CLOUDY    67  63  89 S7        30.10S
PERU*          MOSUNNY  N/A N/A N/A S5        30.08S
$$

ILZ005-006-012>014-019>023-261400-
NORTHEAST ILLINOIS

CITY           SKY/WX    TMP DP  RH WIND       PRES   REMARKS
CHICAGO-OHARE  CLOUDY    72  61  68 S7        30.08F
CHICAGO-MIDWAY PTSUNNY   71  61  70 S7        30.09S
AURORA         CLOUDY    69  64  84 SE6       30.10S
LANSING*       MOSUNNY   68  61  78 S6        30.11S
JOLIET*        CLOUDY    71  64  80 S5        30.10S
WAUKEGAN       PTSUNNY   70  63  78 SW10      30.08S
DUPAGE AIRPORT PTSUNNY   70  64  81 S8        30.08F
KANKAKEE*      MOSUNNY   68  63  84 S6        30.12R
WHEELING       MOSUNNY   71  63  75 S8        30.10S
MORRIS*        PTSUNNY   68  64  84 S5        30.09R
ROMEOVILLE*    PTSUNNY   69  61  75 S5        30.10S
NORTHERLY ISL    N/A     71  59  65 S2          N/A
$$

LMZ740>746-261400-
SOUTHERN LAKE MICHIGAN

STATION/POSITION SKY/WX   TEMP    WIND        PRES    VSBY  WAVE
                          AIR SEA DIR/SP/G                  HT/PER
                          (F)     (DEG/KT/KT) (MB)    (MI)  (FT/S)
SOUTHERN BUOY              71 70  190/ 16/ 17 1018.1          3/ 5
WILMETTE HARBOR            71 71  200/  8/ 10   N/A           2/ 4
HARRISON CRIB              71     200/ 11/ 11   N/A
BURNHAM HARBOR             71                   N/A
CALUMET HARBOR             69     180/  6/  8 1018.7F
BURNS HARBOR               68     180/  8/ 15 1020.0S
MICHIGAN CITY              68     160/ 10/ 14   N/A
MICHIGAN CITY 6N           69 74  180/ 10/ 12   N/A           1/ 2
ST. JOSEPH                 69 72  210/ 12/ 14 1019.5          2/ 3
$$

ILZ025>027-034>036-040-047-049-050-058-095>099-261400-
WEST-CENTRAL ILLINOIS

CITY           SKY/WX    TMP DP  RH WIND       PRES   REMARKS
QUINCY         SUNNY     74  70  87 S6        30.04S
GALESBURG*     CLOUDY    70  67  89 SE5       30.06F
MACOMB*        CLOUDY    69  69  98 SE3       30.07S
JACKSONVILLE*  MOSUNNY   74  69  85 SE5       30.06R
PITTSFIELD*    CLOUDY    73  71  95 SE3       30.06S
$$

ILZ028>032-037-038-041>044-048-051>054-059>061-261400-
CENTRAL ILLINOIS

CITY           SKY/WX    TMP DP  RH WIND       PRES   REMARKS
PONTIAC        CLOUDY    68  67  98 SE3       30.10S
BLOOMINGTON    CLOUDY    69  63  81 S8        30.10F
DECATUR        CLOUDY    71  66  84 SE5       30.09R
PEORIA         MOSUNNY   73  67  81 S7        30.07S
LACON*         MOSUNNY   70  67  89 CALM      30.07R
LINCOLN*       SUNNY     71  68  91 SE5       30.07S
SPRINGFIELD    SUNNY     76  70  82 SE7       30.06S
TAYLORVILLE    MOSUNNY   73  68  83 SE7       30.07S
$$

ILZ033-039-045-046-055>057-062-063-261400-
EAST-CENTRAL ILLINOIS

CITY           SKY/WX    TMP DP  RH WIND       PRES   REMARKS
CHAMPAIGN      MOSUNNY   70  64  81 SE7       30.11S
RANTOUL*       PTSUNNY   69  65  86 S5        30.11S
MATTOON        MOSUNNY   72  67  84 S8        30.09S
PARIS*         MOSUNNY   68  66  91 SE6       30.12S
$$

ILZ079-100>102-261400-
SOUTHWEST ILLINOIS

CITY           SKY/WX    TMP DP  RH WIND       PRES   REMARKS
ALTON          MOSUNNY   75  72  88 E7        30.06S
BELLEVILLE     SUNNY     76  72  87 CALM      30.06S
CAHOKIA*       SUNNY     79  72  79 SE7       30.04F HX  82
SPARTA*        SUNNY     79  74  86 S6        30.06R HX  82
$$

ILZ064>066-069>071-074>076-080>082-084>086-088>090-092>094-261400-
SOUTH-CENTRAL ILLINOIS

CITY           SKY/WX    TMP DP  RH WIND       PRES   REMARKS
CARBONDALE     SUNNY     79  78  97 S6        30.06S HX  83
CAIRO*         SUNNY     80  77  92 S7        30.07S HX  85
EFFINGHAM*     MOSUNNY   72  70  92 E5        30.10S
MARION         SUNNY     79  79 100 S9        30.07F HX  83
MT. VERNON     SUNNY     76  71  85 VRB3      30.07S
CENTRALIA*     SUNNY     77  73  85 SE6       30.06S
SALEM*         SUNNY     76  69  79 SE6       30.08R
METROPOLIS*    SUNNY     80  77  89 CALM      30.08S HX  87
$$

ILZ067-068-072-073-078-083-087-091-261400-
SOUTHEAST ILLINOIS

CITY           SKY/WX    TMP DP  RH WIND       PRES   REMARKS
LAWRENCEVILLE  SUNNY     73  67  81 SE7       30.10F
FLORA*         MOSUNNY   75  69  83 SE5       30.09S
FAIRFIELD*     SUNNY     76  71  83 CALM      30.07S
HARRISBURG*    SUNNY     77  74  91 CALM      30.07F
ROBINSON*      SUNNY     71  66  84 SE6       30.11S
CARMI*         SUNNY     75  73  91 SE3       30.07S
$$

ABBREVIATIONS USED IN REMARKS
   TC - TEMPERATURE IN CELSIUS
  WCI - WIND CHILL INDEX
   HX - HEAT INDEX
  VSB - VISIBILITY
$$





USA.gov is the U.S. government's official web portal to all federal, state and local government web resources and services.